Regional Weather Roundup
Issued by NWS

Home | Current Version | Previous Version | Text Only | Print | Product List | Glossary On
Versions: 1 2 3 4 5 6 7 8 9 10 11 12 13 14 15 16 17 18 19 20 21 22 23 24 25 26 27 28 29 30 31 32 33 34 35 36 37 38 39 40 41 42 43 44 45 46 47 48 49 50
000
ASUS45 KBOI 290410
RWRID

IDAHO REGIONAL WEATHER ROUNDUP
NATIONAL WEATHER SERVICE BOISE ID
1000 PM MDT THU MAY 28 2015

NOTE: "FAIR" INDICATES FEW OR NO CLOUDS BELOW 12000 FEET
WITH NO SIGNIFICANT WEATHER AND/OR OBSTRUCTIONS TO VISIBILITY

IDZ012-014-290500-
SOUTHWEST IDAHO


CITY           SKY/WX    TMP DP  RH WIND       PRES   REMARKS
BOISE          CLEAR     72  41  32 CALM      30.04R
CALDWELL       CLEAR     72  37  28 SW5       30.03S
MOUNTAIN HOME  CLEAR     70  40  33 NW6       30.04R
$$

IDZ016-017-290500-
SOUTHCENTRAL IDAHO


CITY           SKY/WX    TMP DP  RH WIND       PRES   REMARKS
BURLEY         CLOUDY    61  47  59 E13       30.13R
JEROME         PTCLDY    62  44  51 SE5       30.11R
TWIN FALLS     CLEAR     56  44  64 SE8       30.10R
$$

IDZ019>023-290500-
SOUTHEAST IDAHO


CITY           SKY/WX    TMP DP  RH WIND       PRES   REMARKS
IDAHO FALLS    PTCLDY    50  47  89 N5        30.20R
POCATELLO      PTCLDY    57  50  77 CALM      30.18R
REXBURG        PTCLDY    52  45  77 NE3       30.20R
$$

IDZ006-010-011-018-031-032-290500-
CENTRAL IDAHO MOUNTAINS


CITY           SKY/WX    TMP DP  RH WIND       PRES   REMARKS
MCCALL         CLEAR     61  39  44 N3        30.13R
HAILEY         MOCLDY    57  46  67 S7        30.19R THUNDER
STANLEY          N/A     46  37  71 SE6       30.21R
SALMON         PTCLDY    54  45  71 CALM      30.18R
CHALLIS        PTCLDY    54  43  66 NW8       30.19R
$$

IDZ002-004-006-007-026-290500-
NORTHERN IDAHO


CITY           SKY/WX    TMP DP  RH WIND       PRES   REMARKS
LEWISTON       PTCLDY    72  52  49 NE9       30.02R
LOWELL           N/A     60  53  77 CALM      30.09R
COEUR D`ALENE  MOCLDY    61  54  77 NE7       30.11S
MULLAN PASS    CLOUDY    46  43  89 SE10G17   30.25S
$$


USA.gov is the U.S. government's official web portal to all federal, state and local government web resources and services.